#timestamp,LO_Frequency,Hit,StdDev 
1508785215.6,286047000.2,N
1508785235.4,286047002.8,N
1508785255.2,286047002.6,N
1508785275.1,286047002.2,N
1508785276.0,286047002.2,N
1508785295.8,286047002.2,N
1508785315.7,286046999.9,N
1508785335.5,286047002.3,N
1508785355.3,286047002.3,N
1508785375.2,286047000.2,N
1508785395.0,286047002.2,N
1508785395.9,286047002.2,N
1508785415.8,286047002.1,N
1508785435.6,286047002.0,N
1508785455.4,286047004.1,Y
1508785475.3,286047002.1,P
1508785495.1,286046999.7,N
1508785515.8,286046998.2,N
1508785535.7,286047001.2,N
1508785555.5,286046998.8,N
1508785575.4,286046998.2,N
1508785595.2,286046998.1,N
1508785615.0,286046998.6,N
1508785615.9,286046998.6,N
1508785635.8,286046998.7,N
1508785655.6,286046998.3,N
1508785675.5,286046998.5,N
1508785695.3,286046998.3,N
1508785715.1,286046998.2,N
1508785735.9,286046998.5,N
1508785755.7,286047002.4,N
1508785775.6,286047002.3,N
1508785795.4,286046998.5,N
1508785815.2,286047001.1,N
1508785835.1,286046998.8,N
1508785836.0,286046998.8,N
1508785855.8,286046998.2,N
1508785875.6,286047000.1,N
1508785895.5,286047000.2,N
1508785915.3,286047002.3,N
1508785935.2,286047000.4,N
1508785955.9,286047002.7,N
1508785975.7,286047001.9,N
1508785995.6,286047001.0,N
1508786015.4,286046999.9,N
1508786035.2,286047000.8,N
1508786055.1,286046998.6,N
1508786056.0,286046998.6,N
1508786075.8,286047000.9,N
1508786095.7,286047001.0,N
1508786115.5,286046999.7,N
1508786135.3,286047000.3,N
1508786155.2,286047001.0,N
1508786175.9,286047001.2,N
1508786195.7,286046998.1,N
1508786215.6,286046998.6,N
1508786235.4,286046999.4,N
1508786255.2,286046999.5,N
1508786275.1,286046999.6,N
1508786276.0,286046999.6,N
1508786295.8,286046999.0,N
1508786315.7,286046998.9,N
1508786335.5,286046998.2,N
1508786355.3,286046999.5,N
1508786375.2,286046998.7,N
1508786395.0,286046999.4,N
1508786395.9,286046999.4,N
1508786415.8,286046997.0,N
1508786435.6,286046997.8,N
1508786455.5,286046995.0,Y
1508786475.3,286046998.0,P
1508786495.2,286046999.6,N
1508786515.9,286046997.3,P
1508786535.7,286046997.4,N
1508786555.6,286046997.8,N
1508786575.4,286046995.9,Y
1508786595.3,286046997.9,P
1508786615.1,286046995.5,P
1508786616.0,286046995.5,P
1508786635.8,286046995.5,Y
1508786655.7,286046999.4,P
1508786675.5,286046999.1,N
1508786695.4,286046999.4,N
1508786715.2,286046999.4,N
1508786735.0,286046999.6,N
1508786735.9,286046999.6,N
1508786755.8,286046996.9,Y
1508786775.6,286047000.6,P
1508786795.5,286047000.8,N
1508786815.3,286047000.6,N
1508786835.1,286046998.5,N
1508786855.9,286046998.2,N
1508786875.7,286046999.0,N
1508786895.6,286046996.6,Y
1508786915.4,286046999.4,P
1508786935.2,286046999.2,P
1508786955.1,286046999.6,P
1508786956.0,286046999.6,N
1508786975.8,286046998.1,Y
1508786995.7,286046998.2,P
1508787015.5,286047000.9,N
1508787035.3,286046998.5,N
1508787055.2,286047000.9,N
1508787075.9,286047000.2,N
1508787095.7,286047001.0,N
1508787115.6,286047000.7,N
1508787135.4,286047001.2,N
1508787155.3,286047001.2,N
1508787175.1,286046999.4,N
1508787176.0,286046999.4,N
1508787195.8,286046999.4,N
1508787215.7,286046996.9,Y
1508787235.5,286046999.0,P
1508787255.3,286046996.6,P
1508787275.2,286046997.0,N
1508787295.0,286046998.7,N
1508787295.9,286046998.7,N
1508787315.8,286046998.2,N
1508787335.6,286047001.2,N
1508787355.4,286047000.4,N
1508787375.3,286046998.6,N
1508787395.1,286046998.5,N
1508787415.8,286046999.0,N
1508787435.7,286047000.8,N
1508787455.5,286047000.8,N
1508787475.4,286046999.0,N
1508787495.2,286046996.5,N
1508787515.0,286046996.6,N
1508787515.9,286046996.6,N
1508787535.8,286046999.6,N
1508787555.6,286046999.6,N
1508787575.4,286046998.8,N
1508787595.3,286046998.6,N
1508787615.1,286046998.1,N
1508787635.9,286046998.2,N
1508787655.7,286047000.4,N
1508787675.5,286046999.1,N
1508787695.4,286046998.4,N
1508787715.2,286046998.4,N
1508787735.0,286046996.7,N
1508787735.9,286046996.7,N
1508787755.8,286046997.6,N
1508787775.6,286046997.3,N
1508787795.5,286046995.4,Y
1508787815.3,286046998.9,P
1508787835.1,286046998.3,P
1508787855.9,286047001.0,P
1508787875.7,286047001.1,N
1508787895.6,286046998.8,N
1508787915.4,286046998.8,N
1508787935.2,286047000.8,N
1508787955.1,286046998.2,N
1508787956.0,286046998.2,N
1508787975.8,286046998.6,N
1508787995.6,286046998.2,N
1508788015.5,286046999.3,N
1508788035.3,286046999.1,N
1508788055.1,286046998.8,N
1508788075.9,286046997.8,N
1508788095.7,286046996.5,Y
1508788115.6,286046998.3,P
1508788135.4,286047001.0,N
1508788155.2,286046999.8,N
1508788175.1,286047000.9,N
1508788176.0,286047000.9,N
1508788195.8,286047000.1,N
1508788215.7,286047002.8,N
1508788235.5,286046999.7,N
1508788255.3,286047002.4,N
1508788275.2,286047002.2,N
1508788295.0,286047002.1,N
1508788295.9,286047002.1,N
1508788315.8,286047002.6,N
1508788335.6,286047001.9,N
1508788355.4,286047001.5,N
1508788375.3,286047004.4,Y
1508788395.1,286046999.8,P
1508788415.8,286046999.9,N
1508788435.7,286047002.1,P
1508788455.5,286046999.8,N
1508788475.4,286047002.6,N
1508788495.2,286047002.5,N
1508788515.0,286047003.6,N
1508788515.9,286047003.6,N
1508788535.8,286047002.9,N
1508788555.6,286047005.5,Y
1508788575.4,286047004.2,P
1508788595.3,286047004.4,P
1508788615.1,286047002.1,N
1508788635.9,286047002.5,N
1508788655.7,286047001.6,N
1508788675.5,286047002.3,N
1508788695.4,286047000.2,N
1508788715.2,286046999.8,N
1508788735.0,286047002.4,N
1508788735.9,286047002.4,N
1508788755.8,286047001.7,N
1508788775.6,286047004.3,Y
1508788795.5,286047000.5,P
